Weather in Vesely

Russia / Irkutsk Oblast     55°56′05″N   99°35′20″E
temp.,
°C
wind,
m/s
gust,
m/s
humid.,
%
clouds,
%
prec.,
mm/h
press.,
hPa
HPBL,
m
19 september, sun
sun1923:00+12ese2282100 0.0 100722
02:00+13w2980100 0.0 1008254
05:00+11wsw1193100 0.0 101023
08:00+11wsw2394100 0.1 1011144
11:00+16wnw136840 0.1 1010714
14:00+19w13529 0.1 10091458
17:00+19wsw124935 0.1 10081494
20:00+13se1176100 0.1 100811
20 september, mon
mon2023:00+12e2283100 0.0 100752
02:00+10e2391100 0.0 100552
05:00+9e119699 0.1 100411
08:00+10e1195100 0.6 100345
11:00+14nnw2479100 0.1 1003364
14:00+16nnw5655100 0.1 10031191
17:00+10nw51092100 0.8 1005635
20:00+7wnw71391100 9.8 10091171
21 september, tue
tue2123:00+6w51190100 0.6 1011953
02:00+4w28945 0.6 1013264
05:00+2sw26975 0.0 1014170
08:00+2sw25945 0.0 1014161
11:00+8sw356210 0.0 10131041
14:00+10wsw3547100 0.1 10121707
17:00+11ssw2550100 0.1 10111366
20:00+6sw1177100 0.4 101320
22 september, wed
wed2223:00+5wsw2683100 0.0 1014272
02:00+4w3884100 0.1 1016436
05:00+2wsw268956 0.0 1017182
08:000sw139196 0.0 101982
11:00+5w366195 0.0 10191285
14:00+6w3558100 0.1 10201449
17:00+6w356297 0.1 10211144
20:00+2w11855 0.2 102311
23 september, thu
thu2323:000sw11935 0.0 102410
02:00−1sse119437 0.0 102510
05:00−2ese11955 0.0 102410
08:00−1ese1192100 0.0 102545
11:00+6se245987 0.0 1023670
14:00+10se354086 0.0 10211874
17:00+10se2443100 0.0 10201694
20:00+4ese2266100 0.0 102111